[ ตารางข้อมูล ] [ Min-Max ] [ วันนี้4 ] [ วันนี้2 ] [ เทียบ3วัน A ] [ เทียบ4วัน B ]   

วันนี้2   [ ◀ ช่วงเก่ากว่า ] [ ช่วงที่ 326 ] [ ช่วงใหม่กว่า ▶ ] [ ล่าสุด ]    [ 3 ชั่วโมง ] [ 6 ชั่วโมง ] [ 12 ชั่วโมง ] [ 24 ชั่วโมง ]   วันนี้2

อุณภูมิตู้ Knockdown4529  ราย 3 ชั่วโมง  ที่วัดได้ ในช่วงวันเวลา 30/03/2026 (11:38) ถึง 30/03/2026 (14:38) 
ความชื้นในตู้ Knockdown4529  ราย 3 ชั่วโมง  ที่วัดได้ ในช่วงวันเวลา 30/03/2026 (11:38) ถึง 30/03/2026 (14:38) 

 
DS18B20SHTC3 
IDDate d/m/Y & Timedata1
สูง
data2
ต่ำ
data3
นอก
temp
pcb
hum
pcb
Time
 7220  30/03/2026 14:35:33  32.7  31.8  31.5  32.1  68.2  14:35 
 7219  30/03/2026 14:30:52  32.8  31.8  31.7  32.2  68.2  14:30 
 7218  30/03/2026 14:26:10  32.8  31.8  32.1  32.1  67.9  14:26 
 7217  30/03/2026 14:21:28  32.8  31.8  32.3  32.1  67.8  14:21 
 7216  30/03/2026 14:16:46  32.8  31.7  32.7  32.1  67.8  14:16 
 7215  30/03/2026 14:12:04  32.8  31.7  32.3  32.1  67.9  14:12 
 7214  30/03/2026 14:07:22  32.8  31.7  32.2  32.1  67.8  14:07 
 7213  30/03/2026 14:02:40  32.8  31.6  32.9  32.1  67.7  14:02 
 7212  30/03/2026 13:57:58  32.8  31.6  32.7  32.0  67.6  13:57 
 7211  30/03/2026 13:53:16  32.8  31.6  32.5  32.2  67.7  13:53 
 7210  30/03/2026 13:48:35  32.8  31.6  32.5  32.2  67.8  13:48 
 7209  30/03/2026 13:43:53  32.8  31.6  33.0  32.1  67.7  13:43 
 7208  30/03/2026 13:39:11  32.7  31.5  32.9  32.1  67.8  13:39 
 7207  30/03/2026 13:34:29  32.7  31.5  33.0  32.1  67.8  13:34 
 7206  30/03/2026 13:29:48  32.7  31.5  32.9  32.1  67.7  13:29 
 7205  30/03/2026 13:25:04  32.7  31.4  32.5  32.0  67.7  13:25 
 7204  30/03/2026 13:20:22  32.6  31.4  32.7  32.1  67.7  13:20 
 7203  30/03/2026 13:15:40  32.6  31.4  32.4  31.9  67.8  13:15 
 7202  30/03/2026 13:10:58  32.6  31.4  32.5  31.9  67.8  13:10 
 7201  30/03/2026 13:06:16  32.6  31.3  32.7  31.9  67.8  13:06 
 7200  30/03/2026 13:01:33  32.6  31.3  32.1  32.0  67.8  13:01 
 7199  30/03/2026 12:56:52  32.5  31.3  32.4  31.8  67.9  12:56 
 7198  30/03/2026 12:52:10  32.4  31.2  32.4  31.6  67.8  12:52 
 7197  30/03/2026 12:47:28  32.4  31.2  32.8  31.8  67.8  12:47 

Data every 5 minute.


ใช้เวลาประมวลผล 0.00291 วินาที